Weather History for Pensacola NAS, FL

Change the Weather History Date:

Tuesday, January 1, 2013

  Actual Average Record
Temperature  
Mean Temperature 66 °F -  
Max Temperature 71 °F 59 °F - (-1)
Min Temperature 61 °F 40 °F - (-1)
Cooling Degree Days 1    
Growing Degree Days 16 (Base 50)    
Moisture  
Dew Point 64 °F    
Average Humidity 93    
Maximum Humidity 100    
Minimum Humidity 78    
Precipitation  
Precipitation 0.04 in - - ()
Sea Level Pressure  
Sea Level Pressure 30.00 in    
Wind  
Wind Speed 9 mph (SSW)    
Max Wind Speed 13 mph    
Max Gust Speed 18 mph    
Visibility 9 miles    
Events Rain    
Averages and records for this station are not official NWS values.
T = Trace of Precipitation, MM = Missing Value Source: NWS Daily Summary

Daily Weather History Graph

Daily Weather History Graph

Search for Another Location

Airport:

Trip Planner

Search our weather history database for the weather conditions in past years. The results will help you decide how hot, cold, wet, or windy it might be!

Date:

Astronomy

Jan. 01, 2013 Rise Set
Actual Time 6:46 AM CST 5:00 PM CST
Civil Twilight 6:19 AM CST 5:26 PM CST
Nautical Twilight 5:49 AM CST 5:56 PM CST
Astronomical Twilight 5:20 AM CST 6:25 PM CST
Moon 9:10 PM CST (1/1) 9:15 AM CST (1/1)
Length of Visible Light 11h 06m
Length of Day
10h 14m
Waning Gibbous, 83% of the Moon is Illuminated
Jan 1
Waning Gibbous
Jan 4
Last Quarter
Jan 11
New
Jan 18
First Quarter
Jan 26
Full

Hourly Weather History & Observations

Time (CST) Temp. Dew Point Humidity Pressure Visibility Wind Dir Wind Speed Gust Speed Precip Events Conditions
12:56 AM 61.0 °F 60.1 °F 97% 30.09 in 10.0 mi South 8.1 mph - 0.00 in   Clear
1:56 AM 62.1 °F 60.1 °F 93% 30.08 in 10.0 mi South 10.4 mph - N/A   Clear
2:56 AM 63.0 °F 60.1 °F 90% 30.07 in 10.0 mi South 11.5 mph - N/A   Clear
3:56 AM 63.0 °F 60.1 °F 90% 30.06 in 10.0 mi South 10.4 mph - N/A   Clear
4:56 AM 62.1 °F 60.1 °F 93% 30.04 in 10.0 mi South 9.2 mph - N/A   Clear
5:56 AM 62.1 °F 60.1 °F 93% 30.04 in 10.0 mi South 9.2 mph - N/A   Clear
6:56 AM 63.0 °F 61.0 °F 93% 30.05 in 10.0 mi South 8.1 mph - N/A   Clear
7:56 AM 64.9 °F 63.0 °F 93% 30.05 in 10.0 mi South 11.5 mph - N/A   Scattered Clouds
8:56 AM 68.0 °F 63.0 °F 84% 30.06 in 10.0 mi South 12.7 mph - N/A   Partly Cloudy
9:56 AM 71.1 °F 64.0 °F 78% 30.06 in 10.0 mi South 12.7 mph - N/A   Scattered Clouds
10:56 AM 70.0 °F 64.0 °F 81% 30.05 in 10.0 mi SSW 9.2 mph - N/A   Overcast
11:28 AM 69.8 °F 64.4 °F 83% 30.04 in 10.0 mi South 9.2 mph - N/A   Overcast
11:38 AM 69.8 °F 64.4 °F 83% 30.03 in 10.0 mi South 9.2 mph - N/A   Overcast
11:56 AM 69.1 °F 64.9 °F 87% 30.03 in 10.0 mi SSW 8.1 mph - N/A   Overcast
12:56 PM 71.1 °F 64.9 °F 81% 29.99 in 10.0 mi South 9.2 mph - N/A   Overcast
1:22 PM 69.8 °F 64.4 °F 83% 29.97 in 10.0 mi South 9.2 mph - N/A   Overcast
1:56 PM 70.0 °F 64.9 °F 84% 29.97 in 10.0 mi South 10.4 mph - N/A   Overcast
2:12 PM 69.8 °F 64.4 °F 83% 29.96 in 10.0 mi South 11.5 mph - N/A   Overcast
2:46 PM 69.8 °F 64.4 °F 83% 29.96 in 10.0 mi South 11.5 mph - N/A   Overcast
2:56 PM 71.1 °F 66.0 °F 84% 29.96 in 10.0 mi SSW 12.7 mph - N/A   Overcast
3:56 PM 69.1 °F 66.0 °F 90% 29.97 in 10.0 mi SSW 10.4 mph - N/A   Overcast
4:19 PM 68.0 °F 66.2 °F 94% 29.97 in 10.0 mi SSW 10.4 mph - N/A   Overcast
4:44 PM 66.2 °F 64.4 °F 94% 29.97 in 9.0 mi South 11.5 mph - N/A   Overcast
4:56 PM 66.9 °F 64.9 °F 93% 29.97 in 8.0 mi South 9.2 mph - N/A   Overcast
5:33 PM 66.2 °F 66.2 °F 100% 29.96 in 9.0 mi South 9.2 mph - N/A   Overcast
5:56 PM 66.9 °F 66.0 °F 97% 29.96 in 8.0 mi South 10.4 mph - N/A   Overcast
6:56 PM 66.0 °F 66.0 °F 100% 29.98 in 7.0 mi South 9.2 mph - N/A   Overcast
7:56 PM 66.0 °F 66.0 °F 100% 29.98 in 6.0 mi SSW 9.2 mph - N/A   Overcast
8:56 PM 66.0 °F 66.0 °F 100% 29.98 in 6.0 mi SSW 6.9 mph - N/A   Overcast
9:43 PM 66.2 °F 66.2 °F 100% 29.98 in 6.0 mi SSW 8.1 mph - 0.00 in Rain Light Rain
9:56 PM 66.9 °F 66.9 °F 100% 29.98 in 6.0 mi SSW 8.1 mph - 0.00 in   Overcast
10:10 PM 66.2 °F 66.2 °F 100% 29.97 in 5.0 mi SSW 6.9 mph - 0.00 in Rain Light Rain
10:24 PM 66.2 °F 66.2 °F 100% 29.98 in 2.5 mi SW 10.4 mph - 0.04 in Rain Heavy Rain
10:28 PM 66.2 °F 66.2 °F 100% 29.98 in 2.5 mi WSW 8.1 mph 16.1 mph 0.04 in Rain Light Rain
10:32 PM 66.2 °F 66.2 °F 100% 29.98 in 4.0 mi WSW 9.2 mph 16.1 mph 0.04 in Rain Light Rain
10:37 PM 66.2 °F 66.2 °F 100% 29.98 in 10.0 mi WSW 8.1 mph - 0.04 in Rain Light Rain
10:53 PM 66.2 °F 66.2 °F 100% 29.98 in 9.0 mi WSW 4.6 mph - 0.04 in Rain Light Rain
10:56 PM 66.0 °F 66.0 °F 100% 29.98 in 9.0 mi West 3.5 mph - 0.04 in Rain Light Rain
11:38 PM 64.4 °F 64.4 °F 100% 29.98 in 10.0 mi West 4.6 mph - 0.00 in   Overcast
11:56 PM 63.0 °F 63.0 °F 100% 29.99 in 10.0 mi NNW 11.5 mph 18.4 mph 0.00 in   Overcast